Kezdőlap
METAR-TAF:

METAR-TAF

Repülőterek :

Prairie du Chien Municipal Airport

Prairie du Chien, Wisconsin, Amerikai Egyesült Államok

földrajzi szélesség: 43-01-19N, földrajzi hosszúság: 091-07-29W, magasság: 201 m

Jelenlegi meteorológiai megfigyelések

A jelentés 27 perccel ezelõtt készült, 02:55 UTC
Északnyugati szél 3 kt
Hőmérséklet -7°C
Páratartalom 67%
Légköri nyomás 1020 hPa
Látótávolság: 16.1 km
Szakadozott felhőzet 12000 lábon

METAR: KPDC 280255Z AUTO 31003KT 10SM BKN120 M07/M12 A3012 RMK AO2 T10711117

Idő: 21:22 (03:22 UTC)


TAF: hiányzik

Meteorológiai megfigyelések és előrejelzések több, mint 4000 repülőtéren (METAR és TAF jelentéseket).

A térképen piros és sárga pontok jelzik az elérhető meteorológiai állomásokat.

Mozgassa az egeret a pont fölött, hogy megjelenjen az állomás neve.

Azután kattintson az időjárási megfigyelések és előrejelzések megtekintéséhez.

A térkép megváltoztatása: kattintson a fekete keresztel jelölt zöld gombra ráközelítéshez, a vonallal jelölt zöld gombra távolításhoz, vagy a zöld nyilakra a szomszédos térképek eléréséhez.


METAR-TAF: